GW0759 Weather Reports


Display with metric or nautical units.
time (UTC)temp
F
wind
direction
speed
MPH
gust
MPH
rain 1hr
in
rain 24hr
in
rain mn
in
humidity
%
barometer
mb
20260509063049 67 331 1.0 8.0 0.00 0.02 0.00 93 1010.0
20260509061556 66 155 2.0 5.0 0.00 0.02 0.00 92 1009.8
20260509060051 66 0 0.0 0.0 0.00 0.02 0.00 92 1009.4
20260509054554 66 0 0.0 0.0 0.00 0.02 0.00 92 1008.8
20260509053051 66 0 0.0 0.0 0.00 0.02 0.00 91 1008.8
20260509051558 67 0 0.0 0.0 0.00 0.02 0.00 91 1008.9
20260509050053 68 0 0.0 2.0 0.00 0.02 0.00 89 1009.0
20260509044555 68 155 1.0 3.0 0.00 0.02 0.02 89 1009.2
20260509043058 69 0 0.0 3.0 0.00 0.02 0.02 89 1008.8
20260509041548 69 0 1.0 6.0 0.00 0.02 0.02 88 1008.2
20260509040104 69 117 2.0 5.0 0.00 0.02 0.02 88 1008.5
20260509034553 70 26 1.0 6.0 0.00 0.02 0.02 87 1008.3
20260509033054 70 156 1.0 8.0 0.00 0.02 0.02 86 1008.0
20260509031554 71 146 2.0 9.0 0.00 0.02 0.02 85 1007.9
20260509030055 71 183 3.0 7.0 0.00 0.02 0.02 85 1007.9
20260509024548 71 103 2.0 6.0 0.00 0.02 0.02 85 1007.9
20260509023053 72 176 2.0 5.0 0.00 0.02 0.02 84 1007.7
20260509021549 72 0 0.0 4.0 0.00 0.02 0.02 84 1007.6
20260509020054 72 0 0.0 4.0 0.00 0.02 0.02 84 1007.6
20260509014550 72 0 0.0 5.0 0.00 0.02 0.02 83 1007.4
20260509013102 72 159 1.0 7.0 0.00 0.02 0.02 83 1007.3
20260509011553 72 130 1.0 6.0 0.00 0.02 0.02 82 1007.2
20260509010056 73 151 1.0 5.0 0.00 0.02 0.02 82 1006.9
20260509004609 73 127 1.0 5.0 0.00 0.02 0.02 81 1006.6
20260509003058 73 0 0.0 2.0 0.00 0.02 0.02 81 1006.8
20260509001550 73 0 1.0 5.0 0.00 0.02 0.02 80 1006.9
20260509000053 74 143 1.0 4.0 0.00 0.02 0.02 79 1007.0
20260508234551 75 139 0.0 7.0 0.00 0.02 0.02 78 1006.8
20260508233058 76 138 1.0 6.0 0.00 0.02 0.02 77 1006.7
20260508231551 77 88 1.0 7.0 0.00 0.02 0.02 76 1006.7
20260508230100 77 148 4.0 10.0 0.00 0.02 0.02 74 1006.6
20260508224550 77 93 5.0 10.0 0.00 0.02 0.02 74 1006.7
20260508223053 75 198 4.0 11.0 0.00 0.02 0.02 76 1006.9
20260508221551 76 111 3.0 8.0 0.00 0.02 0.02 73 1007.1
20260508220053 76 156 2.0 8.0 0.00 0.02 0.02 74 1007.3
20260508214551 72 196 3.0 6.0 0.00 0.02 0.02 78 1007.6
20260508213053 73 134 2.0 8.0 0.00 0.02 0.02 77 1007.7
20260508211549 73 156 0.0 6.0 0.00 0.02 0.02 79 1007.9
20260508210106 74 123 3.0 11.0 0.00 0.02 0.02 77 1008.2
20260508204555 74 85 5.0 14.0 0.00 0.02 0.02 75 1007.9
20260508203049 71 113 5.0 13.0 0.02 0.02 0.02 81 1007.7
20260508201554 68 132 7.0 12.0 0.02 0.02 0.02 86 1007.9
20260508200052 67 140 1.0 3.0 0.02 0.02 0.02 86 1009.5
20260508194550 66 0 0.0 6.0 0.02 0.02 0.02 83 1010.2
20260508193059 68 169 2.0 7.0 0.00 0.00 0.00 76 1009.8
20260508191553 71 169 3.0 11.0 0.00 0.00 0.00 71 1010.0
20260508184620 70 190 3.0 8.0 0.00 0.00 0.00 73 1010.0
20260508183053 70 136 4.0 10.0 0.00 0.00 0.00 73 1010.4
20260508181605 69 148 3.0 8.0 0.00 0.00 0.00 73 1010.8
20260508180055 70 176 3.0 9.0 0.00 0.00 0.00 71 1011.0
20260508174559 71 151 5.0 10.0 0.00 0.00 0.00 67 1011.0
20260508173056 75 132 6.0 10.0 0.00 0.00 0.00 64 1010.8
20260508171549 73 184 3.0 10.0 0.00 0.00 0.00 68 1010.8
20260508170051 70 203 3.0 9.0 0.00 0.00 0.00 70 1011.3
20260508164559 70 82 4.0 10.0 0.00 0.00 0.00 70 1011.7
20260508163056 71 196 4.0 11.0 0.00 0.00 0.00 68 1011.8
20260508161553 72 145 3.0 9.0 0.00 0.00 0.00 68 1011.7
20260508160049 70 119 2.0 8.0 0.00 0.00 0.00 71 1011.9
20260508154553 67 116 2.0 9.0 0.00 0.00 0.00 74 1012.2
20260508153053 67 104 3.0 8.0 0.00 0.00 0.00 75 1012.4
20260508151600 65 175 3.0 6.0 0.00 0.00 0.00 77 1012.8
20260508150101 64 0 1.0 5.0 0.00 0.00 0.00 77 1012.9
20260508144619 64 0 0.0 4.0 0.00 0.00 0.00 78 1012.9
20260508143104 64 105 2.0 6.0 0.00 0.00 0.00 77 1012.9
20260508141602 64 90 2.0 6.0 0.00 0.00 0.00 77 1012.7
20260508140054 63 112 2.0 6.0 0.00 0.00 0.00 78 1012.4
20260508134556 63 148 1.0 4.0 0.00 0.00 0.00 79 1012.6
20260508133113 62 153 1.0 5.0 0.00 0.00 0.00 81 1012.6
20260508131549 61 150 1.0 6.0 0.00 0.00 0.00 82 1012.7
20260508130049 60 145 1.0 4.0 0.00 0.00 0.00 86 1012.7
20260508124554 58 0 0.0 0.0 0.00 0.00 0.00 89 1012.9
20260508123110 58 0 0.0 0.0 0.00 0.00 0.00 90 1012.9
20260508121553 57 0 0.0 1.0 0.00 0.00 0.00 91 1012.4
20260508120058 56 0 0.0 0.0 0.00 0.00 0.00 91 1012.7
20260508114555 55 0 0.0 0.0 0.00 0.00 0.00 91 1012.7
20260508113106 56 0 0.0 0.0 0.00 0.00 0.00 91 1012.8
20260508111608 56 0 0.0 2.0 0.00 0.00 0.00 91 1012.8
20260508110059 55 0 0.0 3.0 0.00 0.00 0.00 91 1012.6
20260508104556 55 0 0.0 2.0 0.00 0.00 0.00 91 1012.7
20260508103058 55 0 0.0 0.0 0.00 0.00 0.00 90 1012.8
20260508101557 56 0 0.0 0.0 0.00 0.00 0.00 90 1012.8
20260508100053 57 0 0.0 0.0 0.00 0.00 0.00 89 1012.8
20260508094549 57 0 0.0 2.0 0.00 0.00 0.00 88 1012.4
20260508093106 57 0 0.0 2.0 0.00 0.00 0.00 89 1012.3
20260508091609 57 0 0.0 2.0 0.00 0.00 0.00 89 1012.1
20260508090110 58 0 0.0 2.0 0.00 0.00 0.00 88 1012.6
20260508084555 58 0 0.0 2.0 0.00 0.00 0.00 88 1012.4
20260508083055 58 0 0.0 2.0 0.00 0.00 0.00 87 1012.4
20260508081603 59 0 0.0 2.0 0.00 0.00 0.00 86 1012.8
20260508080048 59 0 0.0 0.0 0.00 0.00 0.00 87 1012.9
20260508074556 59 0 0.0 1.0 0.00 0.00 0.00 89 1013.5
20260508073104 58 107 0.0 0.0 0.00 0.00 0.00 91 1013.7
20260508071604 57 0 0.0 0.0 0.00 0.00 0.00 91 1013.5
20260508070104 57 0 0.0 0.0 0.00 0.00 0.00 91 1013.3
20260508064550 57 0 0.0 0.0 0.00 0.00 0.00 91 1013.3